GW4477 Weather Reports


time (UTC)temp
C
wind
direction
speed
KPH
gust
KPH
rain 1hr
cm
rain 24hr
cm
rain mn
cm
humidity
%
barometer
mb
20260831154516 28 211 0.0 8.0 0.00 0.00 0.00 57 1017.6
20260831153010 27 183 4.8 9.7 0.00 0.00 0.00 58 1017.5
20260831151512 27 201 1.6 9.7 0.00 0.00 0.00 61 1017.4
20260831150016 26 199 4.8 11.3 0.00 0.00 0.00 63 1017.4
20260831144504 26 166 4.8 12.9 0.00 0.00 0.00 65 1017.5
20260831143007 25 171 6.4 11.3 0.00 0.00 0.00 67 1017.4
20260831141534 25 152 3.2 11.3 0.00 0.00 0.00 70 1017.4
20260831140027 23 164 8.0 12.9 0.00 0.00 0.00 75 1017.4
20260831134534 22 122 4.8 11.3 0.00 0.00 0.00 82 1017.2
20260831133007 22 119 3.2 12.9 0.00 0.00 0.00 85 1017.0
20260831131507 21 146 4.8 9.7 0.00 0.00 0.00 86 1017.0
20260831130010 21 142 3.2 6.4 0.00 0.00 0.00 86 1017.0
20260831124520 21 123 3.2 4.8 0.00 0.00 0.00 84 1016.8
20260831123026 21 169 0.0 9.7 0.00 0.00 0.00 83 1016.8
20260831121505 21 99 1.6 4.8 0.00 0.00 0.00 83 1016.6
20260831120010 21 86 0.0 6.4 0.00 0.00 0.00 82 1016.6
20260831114517 21 73 0.0 11.3 0.00 0.00 0.00 81 1016.4
20260831113024 21 144 3.2 12.9 0.00 0.00 0.00 80 1016.8
20260831111531 21 19 3.2 11.3 0.00 0.00 0.00 79 1016.7
20260831110017 22 139 3.2 11.3 0.00 0.00 0.00 79 1017.1
20260831104514 22 26 1.6 8.0 0.00 0.00 0.00 78 1017.3
20260831103020 22 360 1.6 6.4 0.00 0.00 0.00 77 1017.4
20260831101530 22 311 3.2 14.5 0.00 0.00 0.00 77 1017.4
20260831100032 22 35 4.8 9.7 0.00 0.00 0.00 77 1017.4
20260831094514 22 13 4.8 16.1 0.00 0.00 0.00 75 1017.4
20260831093024 22 347 8.0 12.9 0.00 0.00 0.00 74 1017.4
20260831091523 22 42 6.4 12.9 0.00 0.00 0.00 72 1017.3
20260831090028 22 9 6.4 14.5 0.00 0.00 0.00 71 1017.2
20260831084529 22 334 8.0 14.5 0.00 0.00 0.00 71 1017.1
20260831083020 22 306 9.7 17.7 0.00 0.00 0.00 76 1016.8
20260831081526 22 349 8.0 14.5 0.00 0.00 0.00 79 1016.8
20260831080027 22 226 0.0 3.2 0.00 0.00 0.00 78 1016.2
20260831074534 22 179 0.0 4.8 0.00 0.00 0.00 78 1015.7
20260831073035 22 162 3.2 8.0 0.00 0.00 0.00 77 1015.6
20260831071520 22 121 0.0 3.2 0.00 0.00 0.00 77 1015.9
20260831070035 23 116 1.6 3.2 0.00 0.00 0.00 77 1015.7
20260831064531 23 106 0.0 1.6 0.00 0.00 0.00 77 1015.7
20260831063030 23 106 0.0 3.2 0.00 0.00 0.00 76 1015.8
20260831061532 23 128 0.0 3.2 0.00 0.00 0.00 75 1015.8
20260831060029 23 128 0.0 3.2 0.00 0.00 0.00 73 1015.8
20260831054530 24 106 0.0 3.2 0.00 0.00 0.00 72 1015.9
20260831053034 25 125 0.0 3.2 0.00 0.00 0.00 71 1016.0
20260831051538 25 30 0.0 4.8 0.00 0.00 0.00 70 1016.0
20260831050037 25 5 0.0 6.4 0.00 0.00 0.00 70 1016.0
20260831044507 25 350 3.2 12.9 0.00 0.00 0.00 69 1016.1
20260831043011 26 337 3.2 17.7 0.00 0.00 0.00 63 1016.3
20260831041522 27 94 1.6 9.7 0.00 0.00 0.00 56 1015.6
20260831040024 28 93 0.0 3.2 0.00 0.00 0.00 50 1015.3
20260831034506 28 161 0.0 4.8 0.00 0.00 0.00 53 1014.7
20260831033010 28 24 3.2 4.8 0.00 0.00 0.00 52 1014.2
20260831031511 28 31 0.0 6.4 0.00 0.00 0.00 53 1013.5
20260831030023 28 156 3.2 14.5 0.00 0.00 0.00 54 1013.2
20260831024505 28 126 4.8 9.7 0.00 0.00 0.00 54 1013.1
20260831023007 28 136 3.2 6.4 0.00 0.00 0.00 55 1013.3
20260831021512 28 128 0.0 3.2 0.00 0.00 0.00 54 1013.0
20260831020016 29 114 0.0 3.2 0.00 0.00 0.00 53 1012.9
20260831014536 30 120 0.0 0.0 0.00 0.00 0.00 50 1012.9
20260831013005 30 120 0.0 0.0 0.00 0.00 0.00 50 1012.9
20260831011513 31 120 0.0 0.0 0.00 0.00 0.00 47 1013.0
20260831010016 32 120 0.0 0.0 0.00 0.00 0.00 45 1012.9
20260831004519 33 120 0.0 0.0 0.00 0.00 0.00 43 1013.0
20260831003030 34 120 0.0 3.2 0.00 0.00 0.00 41 1012.9
20260831001505 35 153 1.6 6.4 0.00 0.00 0.00 37 1012.9
20260831000016 35 122 0.0 3.2 0.00 0.00 0.00 35 1013.0
20260830234516 36 182 1.6 8.0 0.00 0.00 0.00 35 1013.1
20260830233027 36 144 1.6 4.8 0.00 0.00 0.00 34 1013.1
20260830231534 36 145 0.0 6.4 0.00 0.00 0.00 33 1012.9
20260830230010 36 137 0.0 8.0 0.00 0.00 0.00 34 1012.9
20260830224516 36 175 3.2 6.4 0.00 0.00 0.00 33 1012.9
20260830223028 36 212 0.0 8.0 0.00 0.00 0.00 33 1013.1
20260830221504 36 182 0.0 9.7 0.00 0.00 0.00 33 1013.1
20260830220003 36 137 3.2 8.0 0.00 0.00 0.00 31 1013.1
20260830214504 37 138 3.2 9.7 0.00 0.00 0.00 32 1013.2
20260830213003 36 201 0.0 8.0 0.00 0.00 0.00 31 1013.3
20260830211504 36 326 0.0 11.3 0.00 0.00 0.00 33 1013.4
20260830210004 36 201 1.6 8.0 0.00 0.00 0.00 31 1013.5
20260830204503 36 215 0.0 3.2 0.00 0.00 0.00 34 1013.8
20260830203009 36 27 0.0 6.4 0.00 0.00 0.00 37 1013.8
20260830201504 36 349 1.6 4.8 0.00 0.00 0.00 36 1013.9
20260830200004 36 173 1.6 8.0 0.00 0.00 0.00 34 1014.1
20260830194506 36 281 1.6 4.8 0.00 0.00 0.00 38 1014.2
20260830193003 35 36 3.2 8.0 0.00 0.00 0.00 37 1014.3
20260830191507 35 334 1.6 4.8 0.00 0.00 0.00 36 1014.4
20260830190012 35 342 3.2 9.7 0.00 0.00 0.00 38 1014.4
20260830184506 34 304 1.6 8.0 0.00 0.00 0.00 41 1014.5
20260830183005 33 323 1.6 9.7 0.00 0.00 0.00 44 1014.5
20260830181504 33 352 1.6 8.0 0.00 0.00 0.00 46 1014.7
20260830180010 33 14 3.2 8.0 0.00 0.00 0.00 47 1014.8
20260830174506 32 337 1.6 9.7 0.00 0.00 0.00 49 1015.1
20260830173008 31 297 1.6 11.3 0.00 0.00 0.00 49 1015.3
20260830171508 31 336 3.2 8.0 0.00 0.00 0.00 51 1015.4
20260830170010 30 343 4.8 8.0 0.00 0.00 0.00 53 1015.4
20260830164526 28 305 3.2 9.7 0.00 0.00 0.00 55 1015.4
20260830163009 28 324 4.8 11.3 0.00 0.00 0.00 57 1015.3
20260830161508 27 348 3.2 9.7 0.00 0.00 0.00 60 1015.3
20260830160013 27 310 1.6 8.0 0.00 0.00 0.00 60 1015.2